Retour au catalogue

TDRS 8

ActifCommunicationsGEO
NORAD 26388·PAYLOAD·🇺🇸 United States

Lancé Jun 30, 2000 depuis Cape Canaveral Space Force Station

Loading…

TLE

FraisSource: Space-Track

Époque: Sep 14, 2026, 09:04 UTC

1 26388U 00034A   26257.37811848 -.00000201  00000-0  00000-0 0  9990
2 26388  12.8227  30.5464 0001424 107.4180  76.3488  1.00271001 96075

Suivez TDRS 8 en temps réel avec AllMySat

Download on the App Store